Tracking 17855 objects as of 26-September-2016
HD Live streaming from Space Station
objects crossing your sky now

TEAMSAT

Track TEAMSAT now!
10-day predictions
TEAMSAT is classified as:


NORAD ID: 25025
Int'l Code: 1997-066C
Perigee: 578.0 km
Apogee: 26,592.9 km
Inclination: 7.7 °
Period: 467.6 minutes
Semi major axis: 19956 km
RCS: 0.5073 m2 (medium)
Launch date: October 30, 1997
Source: European Space Agency (ESA)
Launch site: FRENCH GUIANA (FRGUI)
Your satellite tracking list
Your tracking list is empty





NASA's NSSDC Master Catalog

Two Line Element Set (TLE):
1 25025U 97066C   16270.25047598 -.00000140  00000-0  22645-3 0  9996
2 25025   7.6608 186.6391 6517917 160.3947 351.6299  3.07948794212790
Source of the keplerian elements: AFSPC

N2YO: 504